KC3BHK-2 Weather Reports


Display with metric or nautical units.
time (UTC)temp
F
wind
direction
speed
MPH
gust
MPH
rain 1hr
in
rain 24hr
in
rain mn
in
humidity
%
barometer
mb
20260502151049 57 284 11.0 17.0 0.00 0.00 0.00
20260502130336 49 290 9.0 15.0 0.00 0.00 0.00
20260502123809 48 38 1.0 9.0 0.00 0.00 0.00
20260502123304 47 281 2.0 14.0 0.00 0.00 0.00
20260502122758 47 304 5.0 10.0 0.00 0.00 0.00
20260502122253 47 271 5.0 15.0 0.00 0.00 0.00
20260502121748 46 291 4.0 16.0 0.00 0.00 0.00
20260502121243 47 347 1.0 15.0 0.00 0.00 0.00
20260502120735 46 290 5.0 16.0 0.00 0.00 0.00
20260502120230 45 325 3.0 16.0 0.00 0.00 0.00
20260502115725 46 257 9.0 13.0 0.00 0.00 0.00
20260502115220 45 294 6.0 15.0 0.00 0.00 0.00
20260502114715 44 318 4.0 16.0 0.00 0.00 0.00
20260502114210 45 339 5.0 16.0 0.00 0.00 0.00
20260502113703 45 293 4.0 19.0 0.00 0.00 0.00
20260502113157 44 321 8.0 19.0 0.00 0.00 0.00
20260502112653 44 308 6.0 16.0 0.00 0.00 0.00
20260502111643 43 297 6.0 11.0 0.00 0.00 0.00
20260502111138 43 340 2.0 14.0 0.00 0.00 0.00
20260502110630 45 293 8.0 19.0 0.00 0.00 0.00
20260502110125 44 297 6.0 13.0 0.00 0.00 0.00
20260502105620 44 295 7.0 13.0 0.00 0.00 0.00
20260502105115 44 287 6.0 13.0 0.00 0.00 0.00
20260502104610 43 18 3.0 14.0 0.00 0.00 0.00
20260502104105 44 304 10.0 17.0 0.00 0.00 0.00
20260502103557 43 284 9.0 12.0 0.00 0.00 0.00
20260502103052 45 294 6.0 9.0 0.00 0.00 0.00
20260502102547 44 353 4.0 11.0 0.00 0.00 0.00
20260502102042 44 0 4.0 11.0 0.00 0.00 0.00
20260502101537 43 297 5.0 13.0 0.00 0.00 0.00
20260502101032 45 295 5.0 6.0 0.00 0.00 0.00
20260502100524 44 302 4.0 6.0 0.00 0.00 0.00
20260502091431 46 298 9.0 17.0 0.00 0.00 0.00
20260502090926 47 294 7.0 18.0 0.00 0.00 0.00
20260502090418 46 295 6.0 12.0 0.00 0.00 0.00
20260502071218 49 284 6.0 13.0 0.00 0.00 0.00
20260502070713 50 346 3.0 15.0 0.00 0.00 0.00
20260502070205 51 269 9.0 8.0 0.00 0.00 0.00
20260502065700 49 284 5.0 10.0 0.00 0.00 0.00
20260502065155 51 329 7.0 10.0 0.00 0.00 0.00
20260502064649 51 305 6.0 11.0 0.00 0.00 0.00
20260502064144 50 8 2.0 9.0 0.00 0.00 0.00
20260502063639 51 305 3.0 10.0 0.00 0.00 0.00
20260502063131 50 311 6.0 10.0 0.00 0.00 0.00
20260502062627 50 280 4.0 10.0 0.00 0.00 0.00
20260502062122 51 305 2.0 7.0 0.00 0.00 0.00
20260502061617 52 321 5.0 10.0 0.00 0.00 0.00
20260502061112 52 264 2.0 10.0 0.00 0.00 0.00
20260502060607 52 297 2.0 9.0 0.00 0.00 0.00
20260502060100 51 354 1.0 8.0 0.00 0.00 0.00
20260502055555 52 274 4.0 10.0 0.00 0.00 0.00
20260502055050 52 291 5.0 10.0 0.00 0.00 0.00
20260502054545 52 285 8.0 12.0 0.00 0.00 0.00
20260502054040 52 333 5.0 12.0 0.00 0.00 0.00
20260502053535 51 311 8.0 10.0 0.00 0.00 0.00
20260502053027 52 49 0.0 7.0 0.00 0.00 0.00
20260502052523 52 311 3.0 12.0 0.00 0.00 0.00
20260502052018 52 307 5.0 9.0 0.00 0.00 0.00
20260502051513 52 323 4.0 6.0 0.00 0.00 0.00
20260502051008 52 49 0.0 10.0 0.00 0.00 0.00
20260502050502 52 298 2.0 6.0 0.00 0.00 0.00
20260502045955 52 298 1.0 8.0 0.00 0.00 0.00
20260502045450 52 222 0.0 8.0 0.00 0.00 0.00
20260502044945 51 335 2.0 12.0 0.00 0.00 0.00
20260502044440 52 308 8.0 9.0 0.00 0.00 0.00
20260502043935 51 346 6.0 6.0 0.00 0.00 0.00
20260502043430 53 65 0.0 9.0 0.00 0.00 0.00
20260502042923 51 294 4.0 5.0 0.00 0.00 0.00
20260502042418 53 288 5.0 5.0 0.00 0.00 0.00
20260502041913 52 307 3.0 7.0 0.00 0.00 0.00
20260502041408 52 273 6.0 8.0 0.00 0.00 0.00
20260502040903 53 345 1.0 9.0 0.00 0.00 0.00
20260502040359 53 339 1.0 9.0 0.00 0.00 0.00
20260502035851 53 284 3.0 11.0 0.00 0.00 0.00
20260502035346 53 288 10.0 10.0 0.00 0.00 0.00
20260502034841 53 277 4.0 11.0 0.00 0.00 0.00
20260502034336 52 311 7.0 8.0 0.00 0.00 0.00
20260502033831 53 276 5.0 9.0 0.00 0.00 0.00
20260502033327 53 322 4.0 6.0 0.00 0.00 0.00
20260502032819 53 287 4.0 9.0 0.00 0.00 0.00
20260502032314 53 308 5.0 9.0 0.00 0.00 0.00
20260502031809 53 359 4.0 10.0 0.00 0.00 0.00
20260502031304 53 288 5.0 10.0 0.00 0.00 0.00
20260502030800 53 283 1.0 9.0 0.00 0.00 0.00
20260502030255 53 221 5.0 9.0 0.00 0.00 0.00
20260502025747 53 340 5.0 10.0 0.00 0.00 0.00
20260502025242 53 293 4.0 13.0 0.00 0.00 0.00
20260502024737 53 266 3.0 12.0 0.00 0.00 0.00
20260502023728 54 319 8.0 17.0 0.00 0.00 0.00
20260502023222 53 290 2.0 2.0 0.00 0.00 0.00
20260502022714 52 262 0.0 3.0 0.00 0.00 0.00
20260502022209 53 253 1.0 3.0 0.00 0.00 0.00
20260502021705 53 350 1.0 2.0 0.00 0.00 0.00
20260502021200 53 323 0.0 5.0 0.00 0.00 0.00
20260502020655 55 304 2.0 10.0 0.00 0.00 0.00
20260502020150 54 217 5.0 12.0 0.00 0.00 0.00
20260502015643 55 293 10.0 12.0 0.00 0.00 0.00
20260502015138 55 297 5.0 2.0 0.00 0.00 0.00
20260502014633 55 219 1.0 3.0 0.00 0.00 0.00
20260502014128 55 167 2.0 2.0 0.00 0.00 0.00
20260502013623 56 276 1.0 0.0 0.00 0.00 0.00
20260502013119 57 281 0.0 0.0 0.00 0.00 0.00
20260502012611 56 281 0.0 0.0 0.00 0.00 0.00
20260502012106 57 281 0.0 0.0 0.00 0.00 0.00
20260502011602 56 281 0.0 3.0 0.00 0.00 0.00
20260502011057 56 281 0.0 5.0 0.00 0.00 0.00
20260502010552 56 266 0.0 3.0 0.00 0.00 0.00
20260502010048 57 6 1.0 3.0 0.00 0.00 0.00
20260502005540 55 260 0.0 2.0 0.00 0.00 0.00
20260502005035 57 336 0.0 2.0 0.00 0.00 0.00
20260502004531 57 191 1.0 0.0 0.00 0.00 0.00
20260502004026 58 308 0.0 2.0 0.00 0.00 0.00
20260502003521 58 308 0.0 2.0 0.00 0.00 0.00
20260502003017 58 226 0.0 3.0 0.00 0.00 0.00
20260502002509 59 23 0.0 1.0 0.00 0.00 0.00
20260502002004 59 4 0.0 7.0 0.00 0.00 0.00
20260502001500 59 207 2.0 4.0 0.00 0.00 0.00
20260502000955 59 7 0.0 7.0 0.00 0.00 0.00
20260502000450 60 253 3.0 7.0 0.00 0.00 0.00
20260501235945 59 278 0.0 2.0 0.00 0.00 0.00
20260501235438 59 11 0.0 2.0 0.00 0.00 0.00
20260501234933 58 345 0.0 2.0 0.00 0.00 0.00
20260501234428 60 267 0.0 3.0 0.00 0.00 0.00
20260501233924 59 56 0.0 0.0 0.00 0.00 0.00
20260501233419 60 56 0.0 0.0 0.00 0.00 0.00
20260501232914 60 56 0.0 0.0 0.00 0.00 0.00
20260501232407 61 56 0.0 0.0 0.00 0.00 0.00
20260501231902 62 56 0.0 0.0 0.00 0.00 0.00
20260501231356 63 56 0.0 0.0 0.00 0.00 0.00
20260501230852 62 56 0.0 0.0 0.00 0.00 0.00
20260501230347 62 56 0.0 2.0 0.00 0.00 0.00
20260501225842 62 108 1.0 4.0 0.00 0.00 0.00
20260501225334 62 277 1.0 7.0 0.00 0.00 0.00
20260501224830 62 242 4.0 7.0 0.00 0.00 0.00
20260501224325 63 225 4.0 15.0 0.00 0.00 0.00
20260501223820 64 273 6.0 9.0 0.00 0.00 0.00
20260501223316 63 224 7.0 6.0 0.00 0.00 0.00
20260501222811 63 221 3.0 8.0 0.00 0.00 0.00
20260501222305 63 219 5.0 9.0 0.00 0.00 0.00
20260501221759 64 169 8.0 13.0 0.00 0.00 0.00
20260501221254 62 183 7.0 14.0 0.00 0.00 0.00
20260501220749 64 188 6.0 14.0 0.00 0.00 0.00
20260501220245 64 217 6.0 13.0 0.00 0.00 0.00
20260501215740 64 156 8.0 13.0 0.00 0.00 0.00
20260501215232 64 172 7.0 16.0 0.00 0.00 0.00
20260501214727 64 179 10.0 12.0 0.00 0.00 0.00
20260501214222 65 188 8.0 14.0 0.00 0.00 0.00
20260501213717 67 183 9.0 17.0 0.00 0.00 0.00
20260501213213 67 155 6.0 11.0 0.00 0.00 0.00
20260501212708 66 193 9.0 12.0 0.00 0.00 0.00
20260501212201 66 211 9.0 16.0 0.00 0.00 0.00
20260501211656 66 186 9.0 15.0 0.00 0.00 0.00
20260501211151 69 158 9.0 15.0 0.00 0.00 0.00
20260501210647 68 141 12.0 16.0 0.00 0.00 0.00
20260501210142 68 163 7.0 15.0 0.00 0.00 0.00
20260501205637 68 131 9.0 15.0 0.00 0.00 0.00
20260501205130 66 174 13.0 13.0 0.00 0.00 0.00
20260501204625 63 172 7.0 13.0 0.00 0.00 0.00
20260501204121 63 169 5.0 18.0 0.00 0.00 0.00
20260501203616 68 135 11.0 16.0 0.00 0.00 0.00
20260501203111 68 146 8.0 16.0 0.00 0.00 0.00
20260501202606 67 193 14.0 17.0 0.00 0.00 0.00
20260501202058 67 194 11.0 14.0 0.00 0.00 0.00
20260501201553 67 143 11.0 14.0 0.00 0.00 0.00
20260501201049 68 197 7.0 17.0 0.00 0.00 0.00
20260501200544 68 153 9.0 15.0 0.00 0.00 0.00
20260501200039 68 174 11.0 17.0 0.00 0.00 0.00
20260501195535 68 105 10.0 20.0 0.00 0.00 0.00
20260501195027 69 145 8.0 22.0 0.00 0.00 0.00
20260501194523 68 158 14.0 14.0 0.00 0.00 0.00
20260501194018 68 210 11.0 17.0 0.00 0.00 0.00
20260501193514 68 141 14.0 15.0 0.00 0.00 0.00
20260501193009 69 156 5.0 14.0 0.00 0.00 0.00
20260501192505 69 194 9.0 14.0 0.00 0.00 0.00
20260501191957 68 180 7.0 22.0 0.00 0.00 0.00
20260501191452 67 145 12.0 14.0 0.00 0.00 0.00
20260501190948 69 104 10.0 14.0 0.00 0.00 0.00
20260501190443 68 141 9.0 12.0 0.00 0.00 0.00
20260501185434 68 155 12.0 12.0 0.00 0.00 0.00
20260501184926 68 141 8.0 15.0 0.00 0.00 0.00
20260501184422 68 145 8.0 18.0 0.00 0.00 0.00
20260501183916 68 103 8.0 10.0 0.00 0.00 0.00
20260501183412 67 207 3.0 18.0 0.00 0.00 0.00
20260501182907 67 117 7.0 15.0 0.00 0.00 0.00
20260501182402 68 139 9.0 13.0 0.00 0.00 0.00
20260501181855 66 141 5.0 17.0 0.00 0.00 0.00
20260501181350 66 179 10.0 17.0 0.00 0.00 0.00
20260501180846 65 191 10.0 12.0 0.00 0.00 0.00
20260501180341 65 207 4.0 17.0 0.00 0.00 0.00
20260501175332 65 135 8.0 19.0 0.00 0.00 0.00
20260501174824 67 165 7.0 10.0 0.00 0.00 0.00
20260501174320 66 142 5.0 18.0 0.00 0.00 0.00
20260501173815 65 96 6.0 13.0 0.00 0.00 0.00
20260501172806 65 198 8.0 13.0 0.00 0.00 0.00
20260501172305 66 200 4.0 10.0 0.00 0.00 0.00
20260501171753 64 173 7.0 14.0 0.00 0.00 0.00
20260501171249 64 270 10.0 8.0 0.00 0.00 0.00
20260501170744 63 221 5.0 11.0 0.00 0.00 0.00
20260501170240 64 197 7.0 13.0 0.00 0.00 0.00
20260501165735 64 128 10.0 11.0 0.00 0.00 0.00
20260501165230 63 290 2.0 10.0 0.00 0.00 0.00
20260501164723 64 143 4.0 13.0 0.00 0.00 0.00
20260501164218 62 65 1.0 8.0 0.00 0.00 0.00
20260501163713 63 162 4.0 11.0 0.00 0.00 0.00
20260501163209 65 159 7.0 9.0 0.00 0.00 0.00
20260501162704 64 226 8.0 10.0 0.00 0.00 0.00
20260501162159 61 242 7.0 10.0 0.00 0.00 0.00
20260501161651 64 162 5.0 9.0 0.00 0.00 0.00
20260501161146 62 129 8.0 10.0 0.00 0.00 0.00
20260501160642 62 134 7.0 9.0 0.00 0.00 0.00
20260501155632 62 152 6.0 9.0 0.00 0.00 0.00
20260501155127 63 169 5.0 10.0 0.00 0.00 0.00
20260501154620 64 127 5.0 7.0 0.00 0.00 0.00
20260501154115 61 191 2.0 10.0 0.00 0.00 0.00
20260501153611 60 255 5.0 11.0 0.00 0.00 0.00
20260501153106 61 194 5.0 10.0 0.00 0.00 0.00
20260501152601 59 212 3.0 9.0 0.00 0.00 0.00
20260501152057 59 208 6.0 10.0 0.00 0.00 0.00
20260501151549 59 228 5.0 7.0 0.00 0.00 0.00